Klamath Falls Airport
KLMT : now visible

Airfield :











YOU CAN JOIN US ON...

 
LOGIN :

Register | Disclaimer

   EN    FR    IT 

 









Legend :    VFR   Marginal VFR   IFR   Intensive IFR   Very Intensive IFR
Visi :
Ceiling :
>= 8 km
>= 3000ft
5 to 8 km
1000 to 3000 ft
1500m to 5 km
500 to 1000 ft
800 to 1500m
200 to 500 ft
< 800m
< 200 ft
Symbols :   Thunderstorms  Fog  Heavy snow  Heavy precipitations  Wind > 20 kt






- Airport Elevation : 4095 ft
- IATA code : LMT


KLMT - Klamath Falls

CURRENT METAR :
  • 101753Z 28008G16KT 10SM CLR 07/M03 A3015 RMK AO2 SLP202 T00721033 10072 20006 51006

EXPIRED METARs :
  • 101653Z 27014KT 10SM CLR 06/M03 A3014 RMK AO2 SLP203 T00611033
  • 101553Z 26015KT 10SM CLR 06/M04 A3014 RMK AO2 SLP200 T00561039

TAF KLMT
Valid from the 10 at 18:00 until the 11 at 18:00 UTC


101733Z 1018/1118 34014KT P6SM SKC
FM101900 34012G23KT P6SM SKC
FM110300 31006KT P6SM SKC
KZSE FIR / North America



MET'MAP, your aeronautical weather chart ! - Copyright ORBIFLY December 2007 - Disclaimer

ORBIFLY MET'MAP TEAM :

Programming & Development : Alexandra Zaïnal
Concept & original design : Baudouin d'Aumeries
Assistance for programming : Marc-Olivier Méhu
Technical & hardware support : Manuel Goepfert

Contact : metmap@orbifly.com




SOURCES & CREDITS :

   NOAA       Earth
Advisory